Forside
METAR-TAF:

METAR-TAF

Lufthavne :

Muscatine, Iowa, USA

Breddekreds: 41-22N, længdekreds: 091-09W, højde: 167 m

Aktuelle vejr

Denne rapport blev lavet for 19 minutter siden, kl. 07:15 UTC
Vind 8 kt fra sydvest
Temperatur 5°C
Fugtighed 70%
Tryk 1017 hPa
Sigt: 16.1 km
skyfri

METAR: KMUT 290715Z AUTO 22008KT 10SM CLR 05/M00 A3003 RMK AO2

Tid: 01:34 (07:34 UTC)


TAF: fraværende

Vejrobservationer og prognoser fra mere end 4000 lufthavne (METAR og TAF).

De gule og røde prikker repræsenterer de meteorologiske stationer.

Flyt musen over at se navnet på stationen.

Så klik over at se vejr observationer og prognoser.

At skifte det kort: Klik på de grønne knapper med et sort kors for at zoome ind; på den grønne knap med en bindestreg for at zoome ud; eller på de grønne pile for tilstødende kort.


METAR-TAF: